Качергине

Литва     54°55′58″N   23°42′43″E
темп.,
°C
ветер,
м/с
пор.,
м/с
влажн.,
%
обл.,
%
осадки,
мм/ч
давл.,
гПа
погр.,
м
23 апреля, пт
пт2300:00+2юз6117788 0.0 1010725
03:00+2юз61096100 0.1 1010806
06:00+1зюз71195100 0.3 1009774
09:00+2з71296100 0.6 1011665
12:00+5зсз71070100 0.5 10121449
15:00+5зсз7972100 1.9 10141201
18:00+5зсз71065100 0.9 10141484
21:00+2зсз51079100 1.6 1016469
24 апреля, сб
сб2400:00+1зсз5108880 0.1 1016442
03:00−1зсз41091100 0.2 1017335
06:000зюз498799 0.0 1017273
09:00+4з6106711 0.0 1017766
12:00+6зсз81049100 0.4 10162056
15:00+7зсз81048100 1.2 10162219
18:00+6зсз8104876 0.1 10161948
21:00+2зсз510649 0.1 1017324
25 апреля, вс
вс2500:000зсз5117611 0.0 1017458
03:00−1з5118571 0.0 1017432
06:00−1з4118673 0.0 1017341
09:00+3з696370 0.0 10161060
12:00+6з7955100 0.8 10151771
15:00+7зсз71048100 1.4 10142019
18:00+5сз71066100 0.4 10151381
21:00+2зсз51073100 0.6 1016517
26 апреля, пн
пн2600:00−1з410875 0.0 1016296
03:00−1зюз4109189 0.0 1015280
06:000з5118984 0.0 1014519
09:00+3з697082 0.0 10141031
12:00+6з6762100 0.4 10131483
15:00+7з6853100 1.3 10121947
18:00+6зсз6865100 1.0 10121216
21:00+2зсз348111 1.4 101257
27 апреля, вт
вт2700:000з368715 0.0 1013110
03:00−1з379448 0.0 1013141
06:000зюз499464 0.0 1012300
09:00+3з5786100 0.1 1013560
12:00+6з4573100 0.2 10131071
15:00+7з4468100 0.4 10121053
18:00+8з2370100 0.3 1012817
21:00+5зюз2281100 0.3 101313